When you browse on this site, cookies collect data to enhance your experience and personalize the content and advertising you see.
Visit our Privacy Policy to learn more. By continuing to use the site, you agree to this use of cookies and data.
  • Em Portugal
  • Lista de países
  • Para 7 dias
  • Temperatura da água
  • Mapas de satélite
  • Mapa do tempo
  • Widgets de tempo
  • user-avatar
    Iniciar Sessão

    Previsão horária em Encamp

    Hoje, 21 Janeiro, Segunda-feira

    Tempo Temperatura Precipitação Vento Pressão Humidade
    00:00 -5°C° 0.1 mm 2 m/s 618 mmHg 90%
    01:00 -5°C° 0.2 mm 2 m/s 618 mmHg 90%
    02:00 -5°C° 0.2 mm 2 m/s 618 mmHg 90%
    03:00 -5°C° 0.2 mm 2 m/s 618 mmHg 89%
    04:00 -5°C° 0.2 mm 2 m/s 618 mmHg 89%
    05:00 -5°C° 0.2 mm 2 m/s 618 mmHg 89%
    06:00 -5°C° 0.2 mm 2 m/s 618 mmHg 89%
    07:00 -5°C° 0.2 mm 2 m/s 619 mmHg 85%
    08:00 -6°C° 0.2 mm 3 m/s 619 mmHg 82%
    09:00 -5°C° 0.2 mm 3 m/s 619 mmHg 79%
    10:00 -5°C° 0.1 mm 3 m/s 620 mmHg 75%
    11:00 -4°C° 0.1 mm 3 m/s 620 mmHg 71%
    12:00 -4°C° 0.1 mm 3 m/s 620 mmHg 66%
    13:00 -4°C° 0.1 mm 3 m/s 620 mmHg 67%
    14:00 -4°C° 0.1 mm 3 m/s 620 mmHg 67%
    15:00 -4°C° 0.1 mm 3 m/s 620 mmHg 67%
    16:00 -5°C° 0 mm 2 m/s 619 mmHg 74%
    17:00 -6°C° 0 mm 2 m/s 619 mmHg 81%
    18:00 -8°C° 0 mm 2 m/s 618 mmHg 87%
    19:00 -8°C° 0 mm 2 m/s 618 mmHg 87%
    20:00 -9°C° 0 mm 2 m/s 618 mmHg 87%
    21:00 -9°C° 0 mm 2 m/s 618 mmHg 86%
    22:00 -9°C° 0 mm 2 m/s 618 mmHg 83%
    23:00 -10°C° 0 mm 2 m/s 618 mmHg 80%

    Amanhã, 22 Janeiro, Terça-feira

    Tempo Temperatura Precipitação Vento Pressão Humidade
    00:00 -10°C° 0 mm 2 m/s 618 mmHg 77%
    01:00 -10°C° 0 mm 2 m/s 617 mmHg 71%
    02:00 -10°C° 0 mm 2 m/s 617 mmHg 66%
    03:00 -10°C° 0 mm 2 m/s 616 mmHg 61%
    04:00 -10°C° 0 mm 2 m/s 616 mmHg 58%
    05:00 -10°C° 0 mm 2 m/s 616 mmHg 54%
    06:00 -10°C° 0 mm 2 m/s 615 mmHg 51%
    07:00 -8°C° 0 mm 1 m/s 616 mmHg 49%
    08:00 -6°C° 0 mm 1 m/s 616 mmHg 46%
    09:00 -4°C° 0 mm 1 m/s 616 mmHg 44%
    10:00 -2°C° 0 mm 1 m/s 616 mmHg 41%
    11:00 -1°C° 0 mm 1 m/s 616 mmHg 39%
    12:00 +1°C° 0 mm 1 m/s 616 mmHg 36%
    13:00 0°C° 0.2 mm 1 m/s 615 mmHg 46%
    14:00 0°C° 0.2 mm 1 m/s 614 mmHg 56%
    15:00 -1°C° 0.2 mm 1 m/s 613 mmHg 66%
    16:00 -4°C° 0.5 mm 2 m/s 613 mmHg 72%
    17:00 -4°C° 0.5 mm 2 m/s 612 mmHg 78%
    18:00 -6°C° 0.5 mm 3 m/s 612 mmHg 84%
    19:00 -6°C° 0.2 mm 3 m/s 611 mmHg 85%
    20:00 -6°C° 0.2 mm 2 m/s 611 mmHg 86%
    21:00 -6°C° 0.2 mm 2 m/s 611 mmHg 86%
    22:00 -6°C° 0.6 mm 2 m/s 611 mmHg 87%
    23:00 -7°C° 0.6 mm 3 m/s 611 mmHg 88%

    Depois de amanhã, 23 Janeiro, Quarta-feira

    Tempo Temperatura Precipitação Vento Pressão Humidade
    00:00 -7°C° 0.6 mm 3 m/s 611 mmHg 89%
    01:00 -7°C° 0.7 mm 3 m/s 610 mmHg 89%
    02:00 -8°C° 0.7 mm 3 m/s 610 mmHg 89%
    03:00 -7°C° 0.7 mm 2 m/s 609 mmHg 89%
    04:00 -7°C° 1.2 mm 2 m/s 608 mmHg 91%
    05:00 -6°C° 1.2 mm 1 m/s 608 mmHg 93%
    06:00 -6°C° 1.2 mm 1 m/s 607 mmHg 95%
    07:00 -7°C° 1.6 mm 2 m/s 607 mmHg 94%
    08:00 -7°C° 1.6 mm 2 m/s 607 mmHg 94%
    09:00 -8°C° 1.6 mm 3 m/s 607 mmHg 93%
    10:00 -9°C° 1.1 mm 4 m/s 607 mmHg 91%
    11:00 -11°C° 1.1 mm 5 m/s 607 mmHg 89%
    12:00 -13°C° 1.1 mm 7 m/s 607 mmHg 87%
    13:00 -13°C° 0.5 mm 7 m/s 607 mmHg 87%
    14:00 -13°C° 0.5 mm 8 m/s 607 mmHg 88%
    15:00 -15°C° 0.5 mm 8 m/s 606 mmHg 88%
    16:00 -15°C° 0.6 mm 8 m/s 607 mmHg 89%
    17:00 -15°C° 0.6 mm 8 m/s 607 mmHg 90%
    18:00 -14°C° 0.6 mm 7 m/s 608 mmHg 91%
    19:00 -14°C° 0.8 mm 7 m/s 608 mmHg 91%
    20:00 -14°C° 0.8 mm 7 m/s 609 mmHg 91%
    21:00 -14°C° 0.8 mm 7 m/s 609 mmHg 92%
    22:00 -14°C° 0.5 mm 6 m/s 609 mmHg 92%
    23:00 -15°C° 0.5 mm 6 m/s 609 mmHg 91%

    24 Janeiro, Quinta-feira

    Tempo Temperatura Precipitação Vento Pressão Humidade
    00:00 -15°C° 0.5 mm 6 m/s 610 mmHg 91%
    01:00 -15°C° 0.3 mm 7 m/s 609 mmHg 90%
    02:00 -15°C° 0.3 mm 7 m/s 609 mmHg 89%
    03:00 -15°C° 0.3 mm 7 m/s 609 mmHg 88%
    04:00 -15°C° 0.1 mm 7 m/s 609 mmHg 88%
    05:00 -17°C° 0.1 mm 7 m/s 610 mmHg 87%
    06:00 -17°C° 0.1 mm 7 m/s 610 mmHg 86%
    07:00 -15°C° 0.1 mm 7 m/s 610 mmHg 85%
    08:00 -15°C° 0.1 mm 7 m/s 611 mmHg 84%
    09:00 -14°C° 0.1 mm 7 m/s 612 mmHg 83%
    10:00 -13°C° 0 mm 7 m/s 613 mmHg 81%
    11:00 -11°C° 0 mm 6 m/s 613 mmHg 79%
    12:00 -11°C° 0 mm 6 m/s 614 mmHg 77%
    13:00 -11°C° 0 mm 6 m/s 614 mmHg 77%
    14:00 -11°C° 0 mm 6 m/s 614 mmHg 77%
    15:00 -11°C° 0 mm 5 m/s 614 mmHg 77%
    16:00 -12°C° 0 mm 5 m/s 614 mmHg 79%
    17:00 -13°C° 0 mm 5 m/s 615 mmHg 81%
    18:00 -15°C° 0 mm 5 m/s 615 mmHg 83%
    19:00 -15°C° 0 mm 5 m/s 615 mmHg 83%
    20:00 -15°C° 0 mm 4 m/s 616 mmHg 83%
    21:00 -14°C° 0 mm 4 m/s 616 mmHg 83%
    22:00 -15°C° 0 mm 4 m/s 616 mmHg 82%
    23:00 -15°C° 0 mm 4 m/s 616 mmHg 81%

    25 Janeiro, Sexta-feira

    Tempo Temperatura Precipitação Vento Pressão Humidade
    00:00 -15°C° 0 mm 4 m/s 616 mmHg 81%
    01:00 -15°C° 0 mm 4 m/s 616 mmHg 81%
    02:00 -15°C° 0 mm 4 m/s 616 mmHg 81%
    03:00 -15°C° 0 mm 3 m/s 616 mmHg 81%
    04:00 -15°C° 0 mm 3 m/s 616 mmHg 80%
    05:00 -15°C° 0 mm 3 m/s 616 mmHg 80%
    06:00 -15°C° 0 mm 3 m/s 617 mmHg 79%
    07:00 -14°C° 0 mm 3 m/s 618 mmHg 76%
    08:00 -12°C° 0 mm 4 m/s 619 mmHg 74%
    09:00 -11°C° 0 mm 4 m/s 620 mmHg 71%
    10:00 -9°C° 0 mm 4 m/s 620 mmHg 69%
    11:00 -7°C° 0 mm 4 m/s 621 mmHg 67%
    12:00 -5°C° 0 mm 4 m/s 622 mmHg 65%
    13:00 -5°C° 0 mm 4 m/s 621 mmHg 69%
    14:00 -4°C° 0 mm 4 m/s 621 mmHg 74%
    15:00 -4°C° 0 mm 4 m/s 621 mmHg 78%
    16:00 -4°C° 0.1 mm 3 m/s 621 mmHg 83%
    17:00 -5°C° 0.1 mm 3 m/s 621 mmHg 87%
    18:00 -5°C° 0.1 mm 3 m/s 621 mmHg 91%
    19:00 -5°C° 0.1 mm 3 m/s 621 mmHg 92%
    20:00 -4°C° 0.1 mm 3 m/s 622 mmHg 92%
    21:00 -4°C° 0.1 mm 3 m/s 622 mmHg 93%
    22:00 -4°C° 0.1 mm 3 m/s 622 mmHg 93%
    23:00 -4°C° 0.1 mm 3 m/s 622 mmHg 93%

    26 Janeiro, Sábado

    Tempo Temperatura Precipitação Vento Pressão Humidade
    00:00 -2°C° 0.1 mm 3 m/s 622 mmHg 94%
    01:00 -3°C° 0 mm 2 m/s 622 mmHg 94%
    02:00 -3°C° 0 mm 2 m/s 621 mmHg 94%
    03:00 -3°C° 0 mm 2 m/s 621 mmHg 94%
    04:00 -4°C° 0 mm 2 m/s 621 mmHg 93%
    05:00 -5°C° 0 mm 2 m/s 620 mmHg 92%
    06:00 -6°C° 0 mm 2 m/s 619 mmHg 92%
    07:00 -5°C° 0 mm 2 m/s 620 mmHg 89%
    08:00 -3°C° 0 mm 2 m/s 620 mmHg 86%
    09:00 -2°C° 0 mm 2 m/s 621 mmHg 84%
    10:00 +1°C° 0 mm 1 m/s 621 mmHg 84%
    11:00 +3°C° 0 mm 1 m/s 621 mmHg 84%
    12:00 +4°C° 0 mm 1 m/s 621 mmHg 84%
    13:00 +4°C° 0 mm 1 m/s 621 mmHg 86%
    14:00 +3°C° 0 mm 1 m/s 620 mmHg 88%
    15:00 +3°C° 0 mm 1 m/s 619 mmHg 90%
    16:00 +2°C° 0 mm 1 m/s 619 mmHg 92%
    17:00 +1°C° 0 mm 1 m/s 618 mmHg 94%
    18:00 0°C° 0 mm 1 m/s 617 mmHg 96%
    19:00 -1°C° 0 mm 1 m/s 617 mmHg 96%
    20:00 -1°C° 0 mm 1 m/s 617 mmHg 95%
    21:00 -1°C° 0 mm 1 m/s 616 mmHg 95%
    22:00 -1°C° 0.2 mm 1 m/s 616 mmHg 95%
    23:00 -4°C° 0.2 mm 2 m/s 615 mmHg 94%
    Mostrar mais